When you browse on this site, cookies collect data to enhance your experience and personalize the content and advertising you see.
Visit our Privacy Policy to learn more. By continuing to use the site, you agree to this use of cookies and data.
  • In Sweden
  • List of Countries
  • For 7 days
  • Water Temperature
  • Satellite Maps
  • Weather Map
  • Weather Widgets
  • user-avatar
    Login

    Hourly Weather Czaple

    Today, 20 February, Wednesday

    Time Temperature Precipitation Wind Pressure Humidity
    00:00 +3°C° 0 mm 5 mps 748 mmHg 86%
    01:00 +2°C° 0 mm 5 mps 748 mmHg 87%
    02:00 +2°C° 0 mm 5 mps 748 mmHg 88%
    03:00 +2°C° 0 mm 5 mps 749 mmHg 89%
    04:00 +1°C° 0 mm 5 mps 749 mmHg 90%
    05:00 +2°C° 0 mm 5 mps 749 mmHg 88%
    06:00 +2°C° 0 mm 6 mps 749 mmHg 86%
    07:00 +2°C° 0 mm 6 mps 749 mmHg 83%
    08:00 +2°C° 0.1 mm 6 mps 750 mmHg 80%
    09:00 +3°C° 0.1 mm 7 mps 750 mmHg 77%
    10:00 +3°C° 0.1 mm 7 mps 751 mmHg 73%
    11:00 +3°C° 0.1 mm 7 mps 751 mmHg 71%
    12:00 +4°C° 0.1 mm 7 mps 751 mmHg 69%
    13:00 +4°C° 0.1 mm 7 mps 752 mmHg 67%
    14:00 +4°C° 0 mm 7 mps 752 mmHg 68%
    15:00 +4°C° 0 mm 6 mps 752 mmHg 68%
    16:00 +4°C° 0 mm 6 mps 752 mmHg 69%
    17:00 +3°C° 0 mm 6 mps 753 mmHg 71%
    18:00 +3°C° 0 mm 5 mps 753 mmHg 73%
    19:00 +3°C° 0 mm 5 mps 753 mmHg 75%
    20:00 +4°C° 0 mm 4 mps 754 mmHg 78%
    21:00 +3°C° 0 mm 4 mps 754 mmHg 80%
    22:00 +3°C° 0 mm 3 mps 754 mmHg 82%
    23:00 +3°C° 0 mm 3 mps 754 mmHg 86%

    Tomorrow, 21 February, Thursday

    Time Temperature Precipitation Wind Pressure Humidity
    00:00 +2°C° 0 mm 3 mps 755 mmHg 89%
    01:00 +2°C° 0 mm 3 mps 755 mmHg 93%
    02:00 +3°C° 0 mm 2 mps 755 mmHg 94%
    03:00 +3°C° 0 mm 2 mps 754 mmHg 94%
    04:00 +3°C° 0 mm 2 mps 754 mmHg 95%
    05:00 +2°C° 0.3 mm 3 mps 754 mmHg 94%
    06:00 +3°C° 0.3 mm 4 mps 754 mmHg 94%
    07:00 +3°C° 0.3 mm 4 mps 754 mmHg 93%
    08:00 +2°C° 0.6 mm 5 mps 753 mmHg 91%
    09:00 +2°C° 0.6 mm 5 mps 753 mmHg 88%
    10:00 +3°C° 0.6 mm 6 mps 753 mmHg 86%
    11:00 +3°C° 1.1 mm 6 mps 753 mmHg 87%
    12:00 +3°C° 1.1 mm 6 mps 752 mmHg 88%
    13:00 +3°C° 1.1 mm 6 mps 752 mmHg 89%
    14:00 +3°C° 0.5 mm 6 mps 752 mmHg 89%
    15:00 +4°C° 0.5 mm 6 mps 751 mmHg 88%
    16:00 +4°C° 0.5 mm 6 mps 751 mmHg 88%
    17:00 +4°C° 0.3 mm 6 mps 751 mmHg 88%
    18:00 +4°C° 0.3 mm 6 mps 751 mmHg 89%
    19:00 +4°C° 0.3 mm 6 mps 751 mmHg 90%
    20:00 +4°C° 0.2 mm 6 mps 751 mmHg 89%
    21:00 +5°C° 0.2 mm 6 mps 751 mmHg 89%
    22:00 +5°C° 0.2 mm 6 mps 751 mmHg 89%
    23:00 +5°C° 0.5 mm 6 mps 752 mmHg 89%

    Day after tomorrow, 22 February, Friday

    Time Temperature Precipitation Wind Pressure Humidity
    00:00 +4°C° 0.5 mm 6 mps 752 mmHg 89%
    01:00 +4°C° 0.5 mm 6 mps 753 mmHg 89%
    02:00 +2°C° 0.3 mm 6 mps 753 mmHg 87%
    03:00 +1°C° 0.3 mm 6 mps 754 mmHg 85%
    04:00 -2°C° 0.3 mm 6 mps 755 mmHg 82%
    05:00 -3°C° 0 mm 6 mps 756 mmHg 77%
    06:00 -4°C° 0 mm 5 mps 757 mmHg 72%
    07:00 -4°C° 0 mm 5 mps 759 mmHg 67%
    08:00 -4°C° 0 mm 5 mps 760 mmHg 64%
    09:00 -4°C° 0 mm 5 mps 761 mmHg 60%
    10:00 -2°C° 0 mm 5 mps 762 mmHg 57%
    11:00 -2°C° 0 mm 5 mps 763 mmHg 54%
    12:00 -2°C° 0 mm 5 mps 763 mmHg 51%
    13:00 -2°C° 0 mm 5 mps 764 mmHg 48%
    14:00 -2°C° 0 mm 4 mps 765 mmHg 48%
    15:00 -2°C° 0 mm 4 mps 765 mmHg 49%
    16:00 -3°C° 0 mm 4 mps 765 mmHg 50%
    17:00 -3°C° 0 mm 4 mps 766 mmHg 52%
    18:00 -4°C° 0 mm 3 mps 767 mmHg 55%
    19:00 -5°C° 0 mm 3 mps 767 mmHg 58%
    20:00 -5°C° 0 mm 3 mps 768 mmHg 56%
    21:00 -5°C° 0 mm 3 mps 768 mmHg 54%
    22:00 -5°C° 0 mm 3 mps 769 mmHg 51%
    23:00 -4°C° 0 mm 2 mps 769 mmHg 49%

    23 February, Saturday

    Time Temperature Precipitation Wind Pressure Humidity
    00:00 -4°C° 0 mm 2 mps 769 mmHg 46%
    01:00 -4°C° 0 mm 2 mps 770 mmHg 44%
    02:00 -2°C° 0 mm 1 mps 769 mmHg 44%
    03:00 -2°C° 0 mm 1 mps 769 mmHg 43%
    04:00 -2°C° 0 mm 1 mps 769 mmHg 42%
    05:00 -3°C° 0 mm 0 mps 769 mmHg 42%
    06:00 -3°C° 0 mm 0 mps 770 mmHg 43%
    07:00 -4°C° 0 mm 0 mps 770 mmHg 43%
    08:00 -3°C° 0 mm 0 mps 770 mmHg 38%
    09:00 -1°C° 0 mm 1 mps 770 mmHg 34%
    10:00 0°C° 0 mm 1 mps 770 mmHg 30%
    11:00 +1°C° 0 mm 1 mps 770 mmHg 28%
    12:00 +1°C° 0 mm 2 mps 769 mmHg 27%
    13:00 +2°C° 0 mm 2 mps 769 mmHg 26%
    14:00 +2°C° 0 mm 2 mps 769 mmHg 29%
    15:00 +2°C° 0 mm 2 mps 768 mmHg 32%
    16:00 +1°C° 0 mm 2 mps 768 mmHg 35%
    17:00 +1°C° 0 mm 2 mps 768 mmHg 38%
    18:00 -1°C° 0 mm 2 mps 768 mmHg 41%
    19:00 -2°C° 0 mm 2 mps 768 mmHg 44%
    20:00 -2°C° 0 mm 2 mps 767 mmHg 44%
    21:00 -2°C° 0 mm 2 mps 767 mmHg 45%
    22:00 -2°C° 0 mm 2 mps 767 mmHg 46%
    23:00 -2°C° 0 mm 2 mps 767 mmHg 47%

    24 February, Sunday

    Time Temperature Precipitation Wind Pressure Humidity
    00:00 -2°C° 0 mm 2 mps 766 mmHg 49%
    01:00 -2°C° 0 mm 3 mps 766 mmHg 50%
    02:00 -2°C° 0 mm 2 mps 766 mmHg 51%
    03:00 -2°C° 0 mm 2 mps 765 mmHg 52%
    04:00 -3°C° 0 mm 2 mps 765 mmHg 52%
    05:00 -3°C° 0 mm 2 mps 765 mmHg 52%
    06:00 -3°C° 0 mm 2 mps 765 mmHg 52%
    07:00 -3°C° 0 mm 2 mps 765 mmHg 52%
    08:00 -1°C° 0 mm 3 mps 765 mmHg 48%
    09:00 0°C° 0 mm 3 mps 765 mmHg 45%
    10:00 +2°C° 0 mm 3 mps 764 mmHg 41%
    11:00 +3°C° 0 mm 3 mps 764 mmHg 42%
    12:00 +4°C° 0 mm 3 mps 764 mmHg 43%
    13:00 +5°C° 0 mm 3 mps 764 mmHg 44%
    14:00 +5°C° 0 mm 2 mps 763 mmHg 48%
    15:00 +5°C° 0 mm 2 mps 763 mmHg 53%
    16:00 +5°C° 0 mm 1 mps 763 mmHg 57%
    17:00 +4°C° 0 mm 1 mps 763 mmHg 60%
    18:00 +3°C° 0 mm 1 mps 763 mmHg 63%
    19:00 +2°C° 0 mm 1 mps 763 mmHg 65%
    20:00 +3°C° 0 mm 1 mps 763 mmHg 65%
    21:00 +3°C° 0 mm 1 mps 763 mmHg 65%
    22:00 +2°C° 0 mm 2 mps 763 mmHg 65%
    23:00 +1°C° 0 mm 2 mps 763 mmHg 66%

    25 February, Monday

    Time Temperature Precipitation Wind Pressure Humidity
    00:00 +1°C° 0 mm 2 mps 762 mmHg 66%
    01:00 +1°C° 0 mm 2 mps 762 mmHg 67%
    02:00 +1°C° 0 mm 2 mps 762 mmHg 69%
    03:00 +1°C° 0 mm 2 mps 762 mmHg 71%
    04:00 +1°C° 0 mm 2 mps 761 mmHg 74%
    05:00 +1°C° 0 mm 2 mps 762 mmHg 76%
    06:00 -1°C° 0 mm 3 mps 762 mmHg 78%
    07:00 -1°C° 0 mm 3 mps 762 mmHg 81%
    08:00 0°C° 0 mm 3 mps 762 mmHg 78%
    09:00 +2°C° 0 mm 3 mps 762 mmHg 75%
    10:00 +3°C° 0 mm 3 mps 762 mmHg 73%
    11:00 +4°C° 0 mm 3 mps 762 mmHg 74%
    12:00 +5°C° 0 mm 3 mps 762 mmHg 75%
    13:00 +7°C° 0 mm 3 mps 762 mmHg 76%
    14:00 +7°C° 0 mm 3 mps 762 mmHg 78%
    15:00 +7°C° 0 mm 3 mps 762 mmHg 79%
    16:00 +5°C° 0 mm 3 mps 762 mmHg 80%
    17:00 +4°C° 0 mm 3 mps 762 mmHg 84%
    18:00 +5°C° 0 mm 2 mps 762 mmHg 88%
    19:00 +4°C° 0 mm 2 mps 763 mmHg 91%
    20:00 +3°C° 0 mm 2 mps 763 mmHg 91%
    21:00 +3°C° 0 mm 2 mps 762 mmHg 91%
    22:00 +3°C° 0 mm 2 mps 762 mmHg 91%
    23:00 +3°C° 0 mm 2 mps 762 mmHg 91%
    Show more